• In Belarus
  • List of Countries
  • For 7 days
  • Water Temperature
  • Satellite Maps
  • Weather Map
  • Weather Widgets
  • user-avatar
    Login

    Hourly Weather Comayagua

    Today, 21 November, Wednesday

    Time Temperature Precipitation Wind Pressure Humidity
    00:00 +24°C° 0 mm 2 mps 710 mmHg 96%
    01:00 +23°C° 0.1 mm 2 mps 710 mmHg 96%
    02:00 +23°C° 0.1 mm 1 mps 709 mmHg 96%
    03:00 +23°C° 0.1 mm 1 mps 709 mmHg 96%
    04:00 +23°C° 0.1 mm 1 mps 709 mmHg 96%
    05:00 +23°C° 0.1 mm 1 mps 710 mmHg 96%
    06:00 +23°C° 0.1 mm 2 mps 710 mmHg 96%
    07:00 +24°C° 0 mm 2 mps 710 mmHg 91%
    08:00 +25°C° 0 mm 2 mps 711 mmHg 85%
    09:00 +26°C° 0 mm 2 mps 711 mmHg 80%
    10:00 +27°C° 0 mm 2 mps 711 mmHg 75%
    11:00 +28°C° 0 mm 2 mps 710 mmHg 70%
    12:00 +29°C° 0 mm 3 mps 710 mmHg 65%
    13:00 +29°C° 0.1 mm 3 mps 710 mmHg 65%
    14:00 +29°C° 0.1 mm 3 mps 709 mmHg 65%
    15:00 +29°C° 0.1 mm 3 mps 709 mmHg 65%
    16:00 +27°C° 0.1 mm 2 mps 709 mmHg 74%
    17:00 +26°C° 0.1 mm 2 mps 709 mmHg 82%
    18:00 +24°C° 0.1 mm 2 mps 709 mmHg 91%
    19:00 +24°C° 0 mm 2 mps 710 mmHg 92%
    20:00 +23°C° 0 mm 2 mps 710 mmHg 94%
    21:00 +23°C° 0 mm 2 mps 711 mmHg 96%
    22:00 +23°C° 0 mm 2 mps 711 mmHg 96%
    23:00 +23°C° 0 mm 2 mps 711 mmHg 95%

    Tomorrow, 22 November, Thursday

    Time Temperature Precipitation Wind Pressure Humidity
    00:00 +23°C° 0 mm 2 mps 711 mmHg 95%
    01:00 +23°C° 0 mm 2 mps 710 mmHg 95%
    02:00 +21°C° 0 mm 2 mps 710 mmHg 95%
    03:00 +21°C° 0 mm 2 mps 709 mmHg 95%
    04:00 +22°C° 0 mm 1 mps 710 mmHg 95%
    05:00 +22°C° 0 mm 1 mps 710 mmHg 95%
    06:00 +22°C° 0 mm 1 mps 710 mmHg 95%
    07:00 +23°C° 0 mm 2 mps 710 mmHg 89%
    08:00 +25°C° 0 mm 2 mps 711 mmHg 82%
    09:00 +26°C° 0 mm 2 mps 711 mmHg 76%
    10:00 +28°C° 0 mm 2 mps 711 mmHg 68%
    11:00 +29°C° 0 mm 2 mps 710 mmHg 60%
    12:00 +31°C° 0 mm 2 mps 710 mmHg 52%
    13:00 +31°C° 0 mm 3 mps 709 mmHg 52%
    14:00 +31°C° 0 mm 3 mps 709 mmHg 52%
    15:00 +31°C° 0 mm 3 mps 708 mmHg 52%
    16:00 +29°C° 0.1 mm 2 mps 708 mmHg 63%
    17:00 +27°C° 0.1 mm 2 mps 708 mmHg 73%
    18:00 +24°C° 0.1 mm 2 mps 709 mmHg 84%
    19:00 +24°C° 0.2 mm 2 mps 709 mmHg 88%
    20:00 +23°C° 0.2 mm 1 mps 710 mmHg 92%
    21:00 +23°C° 0.2 mm 1 mps 710 mmHg 95%
    22:00 +23°C° 0.1 mm 1 mps 710 mmHg 96%
    23:00 +23°C° 0.1 mm 1 mps 710 mmHg 96%

    Day after tomorrow, 23 November, Friday

    Time Temperature Precipitation Wind Pressure Humidity
    00:00 +23°C° 0.1 mm 1 mps 710 mmHg 96%
    01:00 +23°C° 0 mm 1 mps 709 mmHg 96%
    02:00 +22°C° 0 mm 1 mps 709 mmHg 96%
    03:00 +22°C° 0 mm 1 mps 708 mmHg 96%
    04:00 +22°C° 0 mm 1 mps 708 mmHg 96%
    05:00 +22°C° 0 mm 1 mps 709 mmHg 96%
    06:00 +21°C° 0 mm 1 mps 709 mmHg 96%
    07:00 +23°C° 0 mm 1 mps 709 mmHg 87%
    08:00 +24°C° 0 mm 2 mps 710 mmHg 78%
    09:00 +26°C° 0 mm 2 mps 710 mmHg 69%
    10:00 +28°C° 0 mm 2 mps 710 mmHg 60%
    11:00 +30°C° 0 mm 2 mps 709 mmHg 52%
    12:00 +32°C° 0 mm 2 mps 709 mmHg 43%
    13:00 +32°C° 0 mm 2 mps 708 mmHg 44%
    14:00 +31°C° 0 mm 2 mps 707 mmHg 46%
    15:00 +31°C° 0 mm 2 mps 707 mmHg 48%
    16:00 +29°C° 0 mm 2 mps 707 mmHg 58%
    17:00 +27°C° 0 mm 2 mps 707 mmHg 69%
    18:00 +24°C° 0 mm 1 mps 707 mmHg 80%
    19:00 +24°C° 0 mm 1 mps 708 mmHg 84%
    20:00 +23°C° 0 mm 1 mps 708 mmHg 89%
    21:00 +22°C° 0 mm 1 mps 709 mmHg 93%
    22:00 +22°C° 0 mm 1 mps 709 mmHg 94%
    23:00 +22°C° 0 mm 1 mps 708 mmHg 95%

    24 November, Saturday

    Time Temperature Precipitation Wind Pressure Humidity
    00:00 +22°C° 0 mm 1 mps 708 mmHg 96%
    01:00 +22°C° 0 mm 1 mps 708 mmHg 96%
    02:00 +22°C° 0 mm 1 mps 707 mmHg 96%
    03:00 +22°C° 0 mm 1 mps 707 mmHg 97%
    04:00 +20°C° 0 mm 0 mps 707 mmHg 97%
    05:00 +19°C° 0 mm 0 mps 707 mmHg 97%
    06:00 +19°C° 0 mm 0 mps 708 mmHg 97%
    07:00 +23°C° 0 mm 1 mps 708 mmHg 87%
    08:00 +26°C° 0 mm 1 mps 709 mmHg 77%
    09:00 +28°C° 0 mm 1 mps 710 mmHg 67%
    10:00 +30°C° 0 mm 1 mps 709 mmHg 58%
    11:00 +32°C° 0 mm 1 mps 709 mmHg 48%
    12:00 +34°C° 0 mm 1 mps 708 mmHg 38%
    13:00 +34°C° 0 mm 1 mps 708 mmHg 38%
    14:00 +34°C° 0 mm 1 mps 707 mmHg 38%
    15:00 +34°C° 0 mm 1 mps 706 mmHg 38%
    16:00 +31°C° 0 mm 1 mps 706 mmHg 47%
    17:00 +28°C° 0 mm 1 mps 707 mmHg 57%
    18:00 +26°C° 0 mm 1 mps 707 mmHg 66%
    19:00 +25°C° 0 mm 1 mps 707 mmHg 72%
    20:00 +22°C° 0 mm 0 mps 708 mmHg 78%
    21:00 +21°C° 0 mm 0 mps 708 mmHg 84%
    22:00 +20°C° 0 mm 0 mps 708 mmHg 86%
    23:00 +20°C° 0 mm 0 mps 708 mmHg 88%

    25 November, Sunday

    Time Temperature Precipitation Wind Pressure Humidity
    00:00 +22°C° 0 mm 1 mps 708 mmHg 89%
    01:00 +21°C° 0 mm 1 mps 707 mmHg 90%
    02:00 +21°C° 0 mm 1 mps 707 mmHg 91%
    03:00 +21°C° 0 mm 1 mps 707 mmHg 92%
    04:00 +21°C° 0 mm 1 mps 707 mmHg 92%
    05:00 +21°C° 0 mm 1 mps 707 mmHg 93%
    06:00 +21°C° 0 mm 1 mps 708 mmHg 94%
    07:00 +23°C° 0 mm 1 mps 708 mmHg 82%
    08:00 +26°C° 0 mm 1 mps 709 mmHg 71%
    09:00 +29°C° 0 mm 1 mps 710 mmHg 60%
    10:00 +31°C° 0 mm 1 mps 709 mmHg 53%
    11:00 +33°C° 0 mm 1 mps 709 mmHg 46%
    12:00 +34°C° 0 mm 1 mps 708 mmHg 38%
    13:00 +34°C° 0 mm 1 mps 708 mmHg 39%
    14:00 +34°C° 0 mm 1 mps 707 mmHg 39%
    15:00 +34°C° 0 mm 1 mps 706 mmHg 39%
    16:00 +31°C° 0 mm 1 mps 707 mmHg 48%
    17:00 +28°C° 0 mm 1 mps 707 mmHg 58%
    18:00 +26°C° 0 mm 1 mps 707 mmHg 67%
    19:00 +25°C° 0 mm 1 mps 707 mmHg 74%
    20:00 +24°C° 0 mm 1 mps 708 mmHg 80%
    21:00 +21°C° 0 mm 0 mps 709 mmHg 87%
    22:00 +21°C° 0 mm 0 mps 708 mmHg 88%
    23:00 +22°C° 0 mm 1 mps 708 mmHg 90%

    26 November, Monday

    Time Temperature Precipitation Wind Pressure Humidity
    00:00 +22°C° 0 mm 1 mps 708 mmHg 92%
    01:00 +22°C° 0 mm 1 mps 708 mmHg 93%
    02:00 +22°C° 0 mm 1 mps 708 mmHg 94%
    03:00 +21°C° 0 mm 1 mps 708 mmHg 94%
    04:00 +21°C° 0 mm 1 mps 708 mmHg 95%
    05:00 +21°C° 0 mm 1 mps 708 mmHg 95%
    06:00 +21°C° 0 mm 1 mps 709 mmHg 96%
    07:00 +24°C° 0 mm 1 mps 709 mmHg 84%
    08:00 +26°C° 0 mm 1 mps 710 mmHg 72%
    09:00 +29°C° 0 mm 1 mps 711 mmHg 61%
    10:00 +30°C° 0 mm 1 mps 710 mmHg 54%
    11:00 +32°C° 0 mm 2 mps 710 mmHg 47%
    12:00 +34°C° 0 mm 2 mps 709 mmHg 41%
    13:00 +34°C° 0 mm 2 mps 708 mmHg 42%
    14:00 +34°C° 0 mm 2 mps 708 mmHg 44%
    15:00 +32°C° 0 mm 2 mps 707 mmHg 46%
    16:00 +30°C° 0.2 mm 2 mps 707 mmHg 56%
    17:00 +28°C° 0.2 mm 1 mps 708 mmHg 67%
    18:00 +25°C° 0.2 mm 1 mps 708 mmHg 78%
    19:00 +25°C° 0.3 mm 1 mps 708 mmHg 83%
    20:00 +24°C° 0.3 mm 1 mps 709 mmHg 88%
    21:00 +23°C° 0.3 mm 1 mps 709 mmHg 93%
    22:00 +23°C° 0.3 mm 1 mps 709 mmHg 94%
    23:00 +23°C° 0.3 mm 1 mps 709 mmHg 95%
    Show more